| time (UTC) | temp F | wind direction | speed MPH | gust MPH | rain 1hr in | rain 24hr in | rain mn in | humidity % | barometer mb |
| 20260506085003 | 44 | 1 | 2.0 | 4.0 | 0.00 | 0.01 | 0.00 | 49 | 995.8 |
| 20260506082003 | 44 | 314 | 3.0 | 4.0 | 0.00 | 0.01 | 0.00 | 48 | 995.4 |
| 20260506081004 | 44 | 314 | 3.0 | 4.0 | 0.00 | 0.01 | 0.00 | 48 | 995.7 |
| 20260506073003 | 45 | 314 | 2.0 | 4.0 | 0.00 | 0.01 | 0.00 | 46 | 995.6 |
| 20260506072002 | 45 | 314 | 2.0 | 4.0 | 0.00 | 0.01 | 0.00 | 46 | 995.6 |
| 20260506071002 | 45 | 314 | 2.0 | 4.0 | 0.00 | 0.01 | 0.00 | 45 | 996.0 |
| 20260506062002 | 46 | 314 | 3.0 | 4.0 | 0.00 | 0.01 | 0.00 | 43 | 995.9 |
| 20260506061002 | 46 | 314 | 4.0 | 4.0 | 0.00 | 0.01 | 0.00 | 43 | 995.9 |
| 20260506051003 | 46 | 314 | 2.0 | 4.0 | 0.00 | 0.02 | 0.00 | 43 | 996.4 |
| 20260506045004 | 46 | 314 | 2.0 | 4.0 | 0.00 | 0.04 | 0.00 | 42 | 996.6 |
| 20260506043002 | 46 | 314 | 3.0 | 4.0 | 0.00 | 0.05 | 0.00 | 42 | 996.8 |
| 20260506042003 | 46 | 314 | 3.0 | 4.0 | 0.00 | 0.05 | 0.00 | 43 | 996.7 |
| 20260506035002 | 47 | 315 | 2.0 | 5.0 | 0.00 | 0.11 | 0.05 | 43 | 997.1 |
| 20260506034002 | 47 | 314 | 2.0 | 4.0 | 0.00 | 0.13 | 0.05 | 43 | 997.0 |
| 20260506033002 | 47 | 314 | 3.0 | 4.0 | 0.00 | 0.17 | 0.05 | 43 | 997.1 |
| 20260506032003 | 47 | 314 | 2.0 | 3.0 | 0.00 | 0.18 | 0.05 | 43 | 997.1 |
| 20260506031002 | 47 | 314 | 2.0 | 4.0 | 0.00 | 0.18 | 0.05 | 43 | 997.1 |
| 20260506030002 | 47 | 314 | 2.0 | 3.0 | 0.00 | 0.18 | 0.05 | 44 | 997.2 |
| 20260506025002 | 47 | 314 | 1.0 | 3.0 | 0.00 | 0.18 | 0.05 | 44 | 997.2 |
| 20260506024003 | 47 | 314 | 1.0 | 2.0 | 0.00 | 0.18 | 0.05 | 43 | 997.2 |
| 20260506023002 | 47 | 314 | 2.0 | 2.0 | 0.00 | 0.18 | 0.05 | 43 | 997.0 |
| 20260506022003 | 47 | 314 | 2.0 | 4.0 | 0.00 | 0.18 | 0.05 | 42 | 996.8 |
| 20260506021002 | 47 | 314 | 2.0 | 3.0 | 0.00 | 0.18 | 0.05 | 42 | 996.8 |
| 20260506020002 | 47 | 314 | 2.0 | 3.0 | 0.00 | 0.18 | 0.05 | 42 | 996.7 |
| 20260506015002 | 48 | 314 | 2.0 | 4.0 | 0.00 | 0.18 | 0.05 | 41 | 997.3 |
| 20260506014002 | 48 | 314 | 2.0 | 4.0 | 0.00 | 0.18 | 0.05 | 40 | 997.0 |
| 20260506013003 | 48 | 314 | 2.0 | 4.0 | 0.00 | 0.18 | 0.05 | 40 | 997.7 |
| 20260506012002 | 48 | 314 | 4.0 | 7.0 | 0.00 | 0.18 | 0.05 | 40 | 997.7 |
| 20260506011002 | 48 | 314 | 2.0 | 4.0 | 0.00 | 0.18 | 0.05 | 41 | 998.9 |
| 20260506005002 | 49 | 314 | 3.0 | 6.0 | 0.00 | 0.18 | 0.05 | 37 | 1000.3 |
| 20260506004002 | 49 | 314 | 3.0 | 4.0 | 0.00 | 0.18 | 0.05 | 36 | 1000.5 |
| 20260506003003 | 49 | 314 | 3.0 | 6.0 | 0.00 | 0.18 | 0.05 | 35 | 1000.6 |
| 20260506002002 | 49 | 314 | 3.0 | 6.0 | 0.00 | 0.18 | 0.05 | 35 | 1000.4 |
| 20260506001003 | 49 | 314 | 3.0 | 6.0 | 0.00 | 0.18 | 0.05 | 34 | 1000.0 |
| 20260506000002 | 50 | 314 | 7.0 | 10.0 | 0.00 | 0.18 | 0.05 | 32 | 1000.0 |
| 20260505235002 | 50 | 314 | 4.0 | 7.0 | 0.00 | 0.18 | 0.05 | 32 | 999.8 |
| 20260505232002 | 51 | 314 | 5.0 | 10.0 | 0.00 | 0.18 | 0.05 | 33 | 1000.3 |
| 20260505231003 | 51 | 314 | 4.0 | 8.0 | 0.00 | 0.18 | 0.05 | 34 | 1000.3 |
| 20260505230003 | 52 | 314 | 2.0 | 4.0 | 0.00 | 0.19 | 0.05 | 37 | 1000.4 |
| 20260505225003 | 52 | 314 | 4.0 | 7.0 | 0.00 | 0.20 | 0.05 | 35 | 1000.7 |
| 20260505224003 | 52 | 314 | 3.0 | 4.0 | 0.00 | 0.20 | 0.05 | 36 | 1001.0 |
| 20260505223003 | 53 | 314 | 4.0 | 6.0 | 0.00 | 0.28 | 0.05 | 36 | 1001.1 |
| 20260505221002 | 53 | 45 | 5.0 | 8.0 | 0.00 | 0.31 | 0.05 | 37 | 1001.6 |
| 20260505220003 | 54 | 45 | 4.0 | 6.0 | 0.00 | 0.31 | 0.05 | 37 | 1001.7 |
| 20260505215003 | 54 | 45 | 4.0 | 6.0 | 0.00 | 0.31 | 0.05 | 38 | 1002.0 |
| 20260505214002 | 55 | 45 | 4.0 | 8.0 | 0.00 | 0.31 | 0.05 | 38 | 1002.0 |
| 20260505213002 | 55 | 45 | 3.0 | 5.0 | 0.00 | 0.31 | 0.05 | 39 | 1002.1 |
| 20260505212003 | 55 | 18 | 5.0 | 8.0 | 0.00 | 0.31 | 0.05 | 38 | 1002.1 |
| 20260505211003 | 55 | 1 | 4.0 | 7.0 | 0.00 | 0.31 | 0.05 | 39 | 1001.9 |
| 20260505210002 | 54 | 1 | 5.0 | 8.0 | 0.00 | 0.31 | 0.05 | 39 | 1001.5 |
| 20260505205003 | 54 | 1 | 6.0 | 8.0 | 0.00 | 0.31 | 0.05 | 40 | 1001.2 |
| 20260505204004 | 53 | 1 | 7.0 | 10.0 | 0.00 | 0.31 | 0.05 | 41 | 1001.0 |
| 20260505202002 | 54 | 1 | 6.0 | 14.0 | 0.00 | 0.31 | 0.05 | 43 | 1001.1 |
| 20260505201003 | 54 | 1 | 5.0 | 8.0 | 0.00 | 0.31 | 0.05 | 44 | 1001.2 |
| 20260505200002 | 54 | 353 | 6.0 | 11.0 | 0.00 | 0.31 | 0.05 | 44 | 1001.1 |
| 20260505195003 | 54 | 343 | 7.0 | 11.0 | 0.00 | 0.31 | 0.05 | 46 | 1001.2 |
| 20260505194003 | 54 | 311 | 5.0 | 8.0 | 0.00 | 0.31 | 0.05 | 52 | 1001.6 |
| 20260505193003 | 54 | 292 | 5.0 | 8.0 | 0.00 | 0.31 | 0.05 | 53 | 1001.8 |
| 20260505191003 | 54 | 292 | 5.0 | 8.0 | 0.00 | 0.31 | 0.05 | 55 | 1001.9 |
| 20260505190004 | 53 | 297 | 5.0 | 9.0 | 0.00 | 0.31 | 0.05 | 59 | 1001.9 |
| 20260505185003 | 52 | 315 | 4.0 | 7.0 | 0.00 | 0.31 | 0.05 | 60 | 1001.4 |
| 20260505184002 | 52 | 314 | 5.0 | 8.0 | 0.00 | 0.31 | 0.05 | 60 | 1001.4 |
| 20260505183003 | 52 | 280 | 4.0 | 7.0 | 0.00 | 0.31 | 0.05 | 61 | 1001.2 |
| 20260505182002 | 51 | 270 | 5.0 | 8.0 | 0.00 | 0.31 | 0.05 | 61 | 1001.2 |
| 20260505181003 | 51 | 270 | 4.0 | 6.0 | 0.00 | 0.31 | 0.05 | 61 | 1001.3 |
| 20260505180003 | 51 | 270 | 5.0 | 8.0 | 0.00 | 0.31 | 0.05 | 62 | 1001.4 |
| 20260505175003 | 51 | 270 | 5.0 | 8.0 | 0.00 | 0.31 | 0.05 | 62 | 1001.4 |
| 20260505174003 | 51 | 306 | 6.0 | 8.0 | 0.00 | 0.31 | 0.05 | 62 | 1001.5 |
| 20260505173003 | 50 | 314 | 6.0 | 11.0 | 0.00 | 0.31 | 0.05 | 64 | 1001.3 |
| 20260505172002 | 50 | 314 | 4.0 | 5.0 | 0.00 | 0.31 | 0.05 | 67 | 1001.0 |
| 20260505171003 | 49 | 314 | 5.0 | 7.0 | 0.01 | 0.31 | 0.05 | 68 | 1000.6 |
| 20260505170003 | 48 | 314 | 4.0 | 5.0 | 0.01 | 0.31 | 0.05 | 70 | 1000.5 |
| 20260505165002 | 48 | 314 | 4.0 | 5.0 | 0.01 | 0.31 | 0.05 | 71 | 1000.3 |
| 20260505164003 | 48 | 314 | 3.0 | 5.0 | 0.01 | 0.31 | 0.05 | 71 | 1000.0 |
| 20260505163003 | 47 | 314 | 4.0 | 8.0 | 0.01 | 0.31 | 0.05 | 70 | 999.6 |
| 20260505161003 | 48 | 314 | 4.0 | 6.0 | 0.00 | 0.30 | 0.04 | 67 | 999.9 |
| 20260505153004 | 51 | 314 | 7.0 | 11.0 | 0.00 | 0.30 | 0.04 | 55 | 999.7 |
| 20260505152003 | 52 | 359 | 7.0 | 10.0 | 0.00 | 0.30 | 0.04 | 52 | 999.7 |
| 20260505151004 | 53 | 1 | 8.0 | 15.0 | 0.00 | 0.30 | 0.04 | 50 | 999.5 |
| 20260505125003 | 58 | 1 | 5.0 | 8.0 | 0.00 | 0.30 | 0.04 | 44 | 998.2 |
| 20260505124003 | 57 | 1 | 5.0 | 7.0 | 0.00 | 0.30 | 0.04 | 47 | 998.0 |
| 20260505123004 | 56 | 1 | 5.0 | 7.0 | 0.00 | 0.30 | 0.04 | 51 | 997.7 |
| 20260505122004 | 55 | 1 | 4.0 | 6.0 | 0.00 | 0.30 | 0.04 | 55 | 997.7 |
| 20260505121003 | 54 | 1 | 6.0 | 8.0 | 0.00 | 0.30 | 0.04 | 59 | 997.6 |
| 20260505120004 | 54 | 1 | 6.0 | 11.0 | 0.00 | 0.30 | 0.04 | 63 | 997.7 |
| 20260505115003 | 53 | 1 | 5.0 | 12.0 | 0.00 | 0.30 | 0.04 | 73 | 997.6 |
| 20260505114004 | 53 | 5 | 6.0 | 11.0 | 0.00 | 0.30 | 0.04 | 78 | 997.7 |
| 20260505113003 | 53 | 22 | 5.0 | 8.0 | 0.00 | 0.30 | 0.04 | 80 | 997.5 |
| 20260505112003 | 53 | 22 | 5.0 | 11.0 | 0.00 | 0.30 | 0.04 | 81 | 997.3 |
| 20260505111003 | 53 | 230 | 5.0 | 11.0 | 0.00 | 0.30 | 0.04 | 82 | 997.4 |
| 20260505102004 | 54 | 314 | 7.0 | 11.0 | 0.00 | 0.30 | 0.04 | 81 | 997.0 |
| 20260505101003 | 54 | 341 | 7.0 | 11.0 | 0.00 | 0.30 | 0.04 | 81 | 997.2 |
| 20260505095004 | 54 | 1 | 4.0 | 7.0 | 0.00 | 0.30 | 0.04 | 81 | 996.9 |
| 20260505094003 | 54 | 1 | 5.0 | 9.0 | 0.00 | 0.30 | 0.04 | 81 | 997.0 |
| 20260505092004 | 55 | 1 | 5.0 | 9.0 | 0.00 | 0.30 | 0.04 | 81 | 997.0 |
| 20260505091003 | 55 | 1 | 5.0 | 11.0 | 0.00 | 0.30 | 0.04 | 81 | 996.7 |
| 20260505090004 | 55 | 1 | 5.0 | 8.0 | 0.00 | 0.30 | 0.04 | 82 | 996.6 |